KB7YYZ Weather Reports


time (UTC)temp
F
wind
direction
speed
knots
gust
knots
rain 1hr
in
rain 24hr
in
rain mn
in
humidity
%
barometer
mb
20260831191548 78 36 0.9 0.9 0.00 0.19 0.19 53 1013.9
20260831190523 77 30 1.7 1.7 0.00 0.19 0.19 54 1013.9
20260831185521 78 2 1.7 1.7 0.00 0.19 0.19 53 1014.3
20260831184519 77 36 0.9 0.9 0.00 0.19 0.19 54 1014.3
20260831183603 77 24 0.0 0.9 0.00 0.19 0.19 54 1014.3
20260831182524 77 294 0.0 0.0 0.00 0.19 0.19 54 1014.7
20260831181534 77 298 0.9 0.9 0.00 0.19 0.19 54 1014.6
20260831180529 78 41 1.7 1.7 0.00 0.19 0.19 55 1014.4
20260831175557 79 327 2.6 2.6 0.00 0.19 0.19 54 1014.2
20260831174520 77 302 1.7 1.7 0.00 0.19 0.19 54 1014.6
20260831173521 77 272 1.7 1.7 0.00 0.19 0.19 54 1014.4
20260831172527 78 275 0.9 1.7 0.00 0.19 0.19 55 1014.2
20260831171526 79 330 1.7 1.7 0.00 0.19 0.19 55 1014.1
20260831170543 80 275 2.6 2.6 0.00 0.19 0.19 55 1013.9
20260831165536 80 270 2.6 2.6 0.00 0.19 0.19 55 1013.4
20260831164532 81 281 2.6 2.6 0.00 0.19 0.19 54 1013.3
20260831163524 82 319 1.7 1.7 0.00 0.19 0.19 54 1012.9
20260831162522 82 320 0.9 0.9 0.00 0.19 0.19 54 1012.5
20260831161534 82 333 0.0 0.0 0.00 0.19 0.19 55 1012.3
20260831160530 83 331 0.0 0.9 0.00 0.19 0.19 54 1012.2
20260831155529 82 326 0.0 0.9 0.00 0.19 0.19 54 1012.0
20260831154602 82 13 0.0 0.0 0.00 0.19 0.19 54 1011.8
20260831153520 82 30 0.0 0.9 0.00 0.19 0.19 54 1011.7
20260831152523 80 0.0 0.0 0.00 0.19 0.19 54 1011.7
20260831151520 80 0.0 0.0 0.00 0.19 0.19 54 1011.5
20260831150545 80 240 0.0 0.0 0.03 0.19 0.19 54 1011.5
20260831145556 80 223 0.0 0.9 0.03 0.19 0.19 54 1011.2
20260831144545 80 0.0 0.0 0.03 0.19 0.19 54 1010.8
20260831143536 79 314 0.0 0.0 0.03 0.19 0.19 55 1010.7
20260831142536 79 145 0.9 0.9 0.03 0.19 0.19 55 1010.5
20260831141522 80 43 1.7 2.6 0.03 0.19 0.19 55 1010.4
20260831140558 79 55 1.7 1.7 0.00 0.17 0.17 54 1010.4
20260831135522 79 19 2.6 2.6 0.00 0.17 0.17 54 1010.4
20260831134528 77 51 2.6 2.6 0.00 0.17 0.17 54 1010.5
20260831133520 77 39 2.6 2.6 0.00 0.17 0.17 54 1010.6
20260831132535 77 47 3.5 3.5 0.00 0.17 0.17 54 1010.8
20260831131535 77 22 2.6 3.5 0.03 0.17 0.17 55 1011.0
20260831130539 78 58 2.6 2.6 0.06 0.17 0.17 55
20260831125544 78 66 1.7 1.7 0.06 0.17 0.17 55
20260831124530 79 6 0.9 1.7 0.11 0.17 0.17 55 1011.8
20260831123532 78 51 1.7 1.7 0.17 0.17 0.17 55 1011.4
20260831122551 79 7 2.6 2.6 0.17 0.17 0.17 56 1011.4
20260831121528 80 355 1.7 2.6 0.14 0.14 0.14 56 1011.6
20260831120542 81 302 2.6 2.6 0.11 0.11 0.11 56 1011.8
20260831115524 81 287 1.7 1.7 0.11 0.11 0.11 56 1011.2
20260831114542 83 286 1.7 1.7 0.06 0.06 0.06 55 1010.9
20260831113520 85 231 3.5 3.5 0.00 0.00 0.00 51 1010.7
20260831112535 86 239 3.5 139.9 0.00 0.00 0.00 48 1010.0
20260831111534 87 283 2.6 2.6 0.00 0.00 0.00 46 1009.6
20260831110546 88 18 0.9 0.9 0.00 0.00 0.00 44 1008.7
20260831105532 88 26 0.9 0.9 0.00 0.00 0.00 44 1008.2
20260831104524 88 35 0.9 0.9 0.00 0.00 0.00 44 1007.9
20260831103543 88 49 0.9 0.9 0.00 0.00 0.00 45 1007.9
20260831102534 88 32 0.0 0.9 0.00 0.00 0.00 46 1007.8
20260831101522 88 0.0 0.0 0.00 0.00 0.00 46 1007.6
20260831100527 88 0.0 0.0 0.00 0.00 0.00 46 1007.6
20260831095521 88 0.0 0.0 0.00 0.00 0.00 46 1007.6
20260831094537 88 0.0 0.0 0.00 0.00 0.00 46 1007.6
20260831093535 88 0.0 0.0 0.00 0.00 0.00 46 1007.4
20260831092519 88 0.0 0.0 0.00 0.00 0.00 45 1007.6
20260831091526 88 0.0 0.0 0.00 0.00 0.00 45 1007.6
20260831090533 88 0.0 0.0 0.00 0.00 0.00 45 1007.7
20260831085534 88 0.0 0.0 0.00 0.00 0.00 44 1007.7
20260831084529 89 0.0 0.0 0.00 0.00 0.00 44 1007.7
20260831083523 89 0.0 0.0 0.00 0.00 0.00 43 1007.7
20260831082524 89 0.0 0.0 0.00 0.00 0.00 44 1007.7
20260831081523 89 0.0 0.0 0.00 0.00 0.00 43 1007.7
20260831080542 90 0.0 0.0 0.00 0.00 0.00 43 1007.7
20260831075519 90 0.0 0.0 0.00 0.00 0.00 42 1007.8
20260831074520 90 0.0 0.0 0.00 0.00 0.00 42 1007.9
20260831073520 90 0.0 0.0 0.00 0.00 0.00 42 1008.0
20260831072525 91 0.0 0.0 0.00 0.00 0.00 42 1007.9
20260831071526 91 0.0 0.0 0.00 0.00 0.00 41 1007.9
20260831070533 91 0.0 0.0 0.00 0.00 0.00 41 1008.0
20260831065554 91 0.0 0.0 0.00 0.00 0.00 41 1008.1
20260831064613 91 315 0.0 0.0 0.00 0.00 0.00 40 1008.2
20260831063523 92 252 0.0 0.9 0.00 0.00 0.00 40 1008.2
20260831062523 92 240 0.9 0.9 0.00 0.00 0.00 40 1008.1
20260831061534 92 214 0.0 0.9 0.00 0.00 0.00 40 1008.1
20260831060533 92 225 0.0 0.0 0.00 0.00 0.00 39 1008.0
20260831055529 92 0.0 0.0 0.00 0.00 0.00 39 1008.0
20260831054539 92 0.0 0.0 0.00 0.00 0.00 38 1008.0
20260831053540 92 325 0.9 0.9 0.00 0.00 0.00 38 1008.0
20260831052556 92 6 0.9 0.9 0.00 0.00 0.00 37 1007.9
20260831051532 93 354 0.9 0.9 0.00 0.00 0.00 36 1007.7
20260831050528 93 338 0.0 0.9 0.00 0.00 0.00 36 1007.6
20260831045526 93 359 0.0 0.9 0.00 0.00 0.00 36 1007.8
20260831044524 93 18 0.9 0.9 0.00 0.00 0.00 35 1007.8
20260831043523 94 319 0.9 0.9 0.00 0.00 0.00 35 1007.8
20260831042520 94 324 0.9 0.9 0.00 0.00 0.00 35 1007.8
20260831041523 94 345 0.0 0.0 0.00 0.00 0.00 34 1007.7
20260831040531 94 0.0 0.0 0.00 0.00 0.00 34 1007.7
20260831035520 95 356 0.0 0.0 0.00 0.00 0.00 33 1007.6
20260831034528 95 0 0.0 0.0 0.00 0.00 0.00 33 1007.5
20260831033532 95 320 0.9 0.9 0.00 0.00 0.00 33 1007.3
20260831032522 96 293 0.9 0.9 0.00 0.00 0.00 33 1007.0
20260831031534 96 265 1.7 1.7 0.00 0.00 0.00 32 1006.9
20260831030532 97 276 1.7 1.7 0.00 0.00 0.00 33 1006.7
20260831025525 97 267 0.9 1.7 0.00 0.00 0.00 32 1006.5
20260831024532 98 279 1.7 1.7 0.00 0.00 0.00 32 1006.3
20260831023555 98 303 1.7 1.7 0.00 0.00 0.00 32 1005.9
20260831022552 99 271 0.9 1.7 0.00 0.00 0.00 32 1005.5
20260831021531 99 259 0.9 0.9 0.00 0.00 0.00 31 1005.2
20260831020521 99 268 0.0 0.0 0.00 0.00 0.00 31 1005.1
20260831015526 99 306 0.0 0.0 0.00 0.00 0.00 30 1005.1
20260831014553 100 278 0.9 0.9 0.00 0.00 0.00 30 1005.0
20260831013533 100 283 0.9 0.9 0.00 0.00 0.00 29 1004.9
20260831012527 100 285 0.9 0.9 0.00 0.00 0.00 29 1004.9
20260831011546 101 299 0.9 0.9 0.00 0.00 0.00 29 1004.8
20260831010533 101 300 0.9 0.9 0.00 0.00 0.00 28
20260831005521 101 299 0.9 0.9 0.00 0.00 0.00 27
20260831004519 102 302 0.9 0.9 0.00 0.00 0.00 26
20260831003531 102 274 0.9 0.9 0.00 0.00 0.00 26 1004.8
20260831002524 103 268 0.9 0.9 0.00 0.00 0.00 26 1004.9
20260831001520 103 284 0.9 0.9 0.00 0.00 0.00 26 1004.8
20260831000526 103 324 0.9 0.9 0.00 0.00 0.00 26 1004.8
20260830235521 104 230 0.9 0.9 0.00 0.00 0.00 26 1004.8
20260830234531 104 285 0.9 1.7 0.00 0.00 0.00 26 1004.8
20260830233530 104 271 1.7 1.7 0.00 0.00 0.00 26 1004.9
20260830232528 104 249 1.7 1.7 0.00 0.00 0.00 27 1005.0
20260830231523 104 323 0.9 0.9 0.00 0.00 0.00 27 1005.1
20260830230531 104 327 0.9 0.9 0.00 0.00 0.00 26 1005.3
20260830225556 105 327 1.7 1.7 0.00 0.00 0.00 27 1005.5
20260830224530 105 319 0.9 0.9 0.00 0.00 0.00 27 1005.6
20260830223524 104 316 1.7 1.7 0.00 0.00 0.00 27 1005.9
20260830222520 105 270 0.9 1.7 0.00 0.00 0.00 27 1006.1
20260830221546 105 237 1.7 1.7 0.00 0.00 0.00 27 1006.3
20260830220552 105 313 0.9 1.7 0.00 0.00 0.00 27 1006.4
20260830215530 104 11 0.9 0.9 0.00 0.00 0.00 27 1006.6
20260830214520 104 237 1.7 1.7 0.00 0.00 0.00 27 1006.7
20260830213524 105 238 1.7 1.7 0.00 0.00 0.00 27 1006.8
20260830212523 104 317 0.9 0.9 0.00 0.00 0.00 27 1006.9
20260830211519 104 219 0.9 0.9 0.00 0.00 0.00 27 1007.1
20260830210529 105 255 0.9 1.7 0.00 0.00 0.00 27 1007.3
20260830205530 104 16 1.7 1.7 0.00 0.00 0.00 28 1007.6
20260830204532 104 312 0.9 0.9 0.00 0.00 0.00 28 1007.8
20260830203521 104 212 0.9 0.9 0.00 0.00 0.00 28 1008.0
20260830202527 104 289 1.7 1.7 0.00 0.00 0.00 28 1008.2
20260830201533 104 291 1.7 1.7 0.00 0.00 0.00 28 1008.2
20260830200529 104 274 0.9 1.7 0.00 0.00 0.00 28 1008.3
20260830195530 103 250 1.7 1.7 0.00 0.00 0.00 28 1008.5
20260830194529 104 210 0.9 0.9 0.00 0.00 0.00 28 1008.6
20260830193523 103 293 0.9 1.7 0.00 0.00 0.00 29 1008.8
20260830192549 103 21 0.9 0.9 0.00 0.00 0.00 29 1009.0